CZ-4C DEB

Satellite information

Favourite Embed

Satellite Type and Status

DEBRISIN ORBIT

Key statistics

Satellite CZ-4C DEB at a glance.

Uptime

5717

Days in orbit

Revolutions

≈ 13.0

Per day

Orbit

LEO

Low Earth Orbit

Inclination

63.3

Latest

Satellite identification and parameters

Extended collection of information and parameters for CZ-4C DEB.

Object identification

Identified? True

Debris? True

Object name: CZ-4C DEB

International designator: 2010-009H

Object number (NORAD): 38304

Object ID (CCSDS): 38304

Country: PEOPLES REPUBLIC OF CHINA (PRC)

Current information (Y/N): Y

RCS size: SMALL

Orbital parameters

Period: 110.414 minutes

Inclination: 63.308 deg

SMA: 7623.88 km

Apoapsis: 1473.71 km

Periapsis: 1017.78 km

RAAN: 180.2205 deg

Eccentricy: 0.0299014

Argument of periapsis: 22.9182 deg

Mean anomaly: 49.9197 deg

Mean motion: 13.04183479 rev/day

Mean motion (dot): 0.00000026 rev/day2

B* drag term: 0.00027120741 1/REarth

Two-line elements (TLE)

Creation date: Oct. 27, 2025, 10:32 a.m.

Reference frame: TEME

Reference center: EARTH

Epoch: Oct. 27, 2025, 2:30 a.m. UTC

TLE line 0: 0 CZ-4C DEB

TLE line 1: 1 38304U 10009H 25300.10445810 .00000026 00000-0 27121-3 0 9995

TLE line 2: 2 38304 63.3080 180.2205 0299014 22.9182 49.9197 13.04183479578905

Live tracking on map

Real-time ground track for satellite CZ-4C DEB.

In-orbit conjunctions

A list of the most updated potential collisions computed for object CZ-4C DEB.

Target Orbit TCA Probability of collision Miss distance Type
COSMOS 2119 LEO 2024-10-30 16:12:32 0.0004987809 692.0 (m) PAYLOAD

Associated space launch

CZ-4C DEB was lifted into orbit during the mission ‘Long March 4C | Yaogan-9’, on board a Long March 4C space rocket.

The launch took place on March 5, 2010, 4:55 a.m. from Launch Area 4 (SLS-2 / 603).

For more information about the launch, click the button.

Launch to space Long March 4C | Yaogan-9
Long March 4C | Yaogan-9

Agency: N/A

Status: Launch Successful

Launch date: March 5, 2010, 4:55 a.m. UTC

Rocket: Long March 4C

Launch pad: Launch Area 4 (SLS-2 / 603)

Location: Jiuquan Satellite Launch Center, People's Republic of China

...

Latest news about this satellite

There are no fresh news available about this satellite. Check back as we update our databases every day.


Newsletter sign-up

Weekly statistics, charts and insights to help you stay on top of the space industry.